{"data":{"norad_id":65127,"intl_designator":"2025-170J","name":"GEESAT-4 09","alt_names":[],"object_type":"PAYLOAD","status":"ACTIVE","operator":null,"country":"PRC","launch_date":"2025-08-08","launch_site_code":"YSLA","launch_vehicle":null,"mission":null,"orbit_class":"UNKNOWN","rcs_meters":null,"size_class":null,"mass_kg":null,"dimensions":null,"purposes":[],"wikipedia_slug":null,"has_3d_model":false,"image_url":null,"decayed_at":null,"tle_current":{"epoch":"2026-09-21T20:59:09.512160Z","epoch_age_seconds":46656,"freshness":"FRESH","line1":"1 65127U 25170J   26264.87441565  .00000766  00000+0  12463-3 0  9993","line2":"2 65127  49.9905 117.3146 0022051  41.3565 318.9038 14.81617004 60332","mean_motion":14.81617004,"eccentricity":0.0022051,"inclination_deg":49.9905,"raan_deg":117.3146,"arg_perigee_deg":41.3565,"mean_anomaly_deg":318.9038,"bstar":0.00012463,"rev_number":6033,"period_min":97.191109180872,"perigee_km":608.78377385272,"apogee_km":639.6655893409,"semimajor_km":7002.3616815968,"source":"CELESTRAK","updated_at":"2026-09-22T09:00:30.147148Z"}}}